KPTW

Details ICAO KPTW
Name Heritage Field
Region United States
Timezone America/New_York (UTC-4.0)
Plans Departing 6
Arriving 3
Stats Elevation 309 ft / 94 m (AMSL)
Location 40.239544° -75.556757°
Runways 1
Magnetic Variation 11.965° W
Sunrise 2018-05-24 09:40:36 UTC / 2018-05-24 05:40:36 Local
Sunset 2018-05-25 00:20:26 UTC / 2018-05-24 20:20:26 Local
Advertisement - Login to hide

Runways

ID Width Length Bearing (true) Bearing (mag) Surface Threshold Offset Overrun Length
10 75 ft / 23 m 3,374 ft / 1,028 m 84.10° 96.06° Asphalt 0 ft / 0 m 0 ft / 0 m
28 75 ft / 23 m 3,374 ft / 1,028 m 264.11° 276.07° Asphalt 190 ft / 58 m 0 ft / 0 m

Approach Navaids

Runway Type Ident Frequency Range Bearing (true) Bearing (mag) Slope Elevation
28 Localiser IPTW 108.30 MHz 18 nm / 33 km 264.07° 276.04° - 309 ft / 94 m (AMSL)

Map

Weather


0- 5 10 15 20 25 30 35+ Temperature / ° C

Clouds and Precipitation
Forecast for 2018-05-25 00:00 UTC. Updated 11 minutes ago

Ground ~20,000 ft ~40,000 ft Winds

METAR

KPTW 242254Z AUTO 23004KT 5SM HZ CLR 26/10 A3010 RMK AO2 SLP190 T02610100

TAF

Not found

Frequencies

Recorded 119.42 MHz ASOS
Clearance 118.55 MHz CLNC DEL
Unicom 122.70 MHz CTAF/UNICOM
Approach 126.85 MHz PHILADELPHIA APP/DEP
Warning: Do not use this data for real-world aviation or navigation. No guarantee of current accuracy is given.